Regional Weather Roundup
Issued by NWS Albany, NY

Home | Current Version | Previous Version | Text Only | Print | Product List | Glossary On
Versions: 1 2 3 4 5 6 7 8 9 10 11 12 13 14 15 16 17 18 19 20 21 22 23 24 25 26 27
000
ASUS41 KALY 221310
RWRALY

NEW YORK STATE HOURLY WEATHER ROUNDUP
NATIONAL WEATHER SERVICE ALBANY NY
800 AM EST THU FEB 22 2018

NOTE: "FAIR" INDICATES FEW OR NO CLOUDS BELOW 12,000 FEET WITH NO
SIGNIFICANT WEATHER AND/OR NO OBSTRUCTIONS TO VISIBILITY.

NYZ032-033-038>043-046>054-057>066-NYZ062>081-082-084-221400-
EAST


CITY           SKY/WX    TMP DP  RH WIND       PRES   REMARKS
ALBANY         CLOUDY    35  20  54 N7        30.66R WCI  29
GLENS FALLS    CLOUDY    31  15  52 NE12      30.67R WCI  22
POUGHKEEPSIE   CLOUDY    41  29  62 N9        30.60S
NEWBURGH       LGT RAIN  39  32  75 NE12      30.60S WCI  32
MONTGOMERY     LGT RAIN  40  31  70 NE8       30.58R WCI  34
WHITE PLAINS   PTSUNNY   42  35  76 N13       30.54F
ISLIP          CLOUDY    45  38  76 NE13      30.54S
NEW YORK CITY  LGT RAIN  47  37  68 N9G21     30.58R
CENTRAL PARK   LGT RAIN  43  37  79 NE9G18    30.60R
$$

NYZ005>009-017-018-044>046-055-056-221400-
CENTRAL


CITY           SKY/WX    TMP DP  RH WIND       PRES   REMARKS
FULTON         CLOUDY    33  26  75 NE6       30.64R WCI  28
SYRACUSE       CLOUDY    33  31  92 CALM      30.64R
ROME           CLOUDY    33  31  92 CALM      30.65R
ELMIRA         LGT RAIN  33  29  85 E3        30.63R
BINGHAMTON     MIX PCPN  31  28  89 NW3       30.57R
MONTICELLO     LGT RAIN  36  33  89 E6        30.57R WCI  31
$$

NYZ026>034-041>043-087-221400-
NORTH


CITY           SKY/WX    TMP DP  RH WIND       PRES   REMARKS
WATERTOWN      CLOUDY    30  22  72 NE12      30.68R WCI  20
FORT DRUM      NOT AVBL
OGDENSBURG     FAIR      26  14  62 NE7       30.73R WCI  18
MASSENA        FAIR      23  13  65 N5        30.75R WCI  17
SARANAC LAKE   CLOUDY    23  16  74 CALM      30.58R
PLATTSBURGH    FAIR      26  13  57 N10       30.73R WCI  16
$$

NYZ001>004-010>016-019>021-085-221400-
WEST


CITY           SKY/WX    TMP DP  RH WIND       PRES   REMARKS
NIAGARA FALLS  CLOUDY    32  24  72 NE7       30.62F WCI  26
BUFFALO        CLOUDY    30  26  85 NE7       30.61F WCI  23
DUNKIRK        CLOUDY    30  27  88 NE9       30.59S WCI  22
JAMESTOWN        N/A    N/A N/A N/A MISG        N/A
WELLSVILLE     LGT SNOW  29  25  85 SE7       30.57R VSB 3/4 WCI  22
ROCHESTER      CLOUDY    33  26  75 NE10      30.63S WCI  25
PENN YAN       CLOUDY    32  26  78 CALM      30.62S
$$

             KEY
       WCI = WIND CHILL INDEX
       VSB = VISIBILITY
       HX  = HEAT INDEX
$$




USA.gov is the U.S. government's official web portal to all federal, state and local government web resources and services.